Theta_e
283 283 282 281 281 281 281 280 280 280 280 279 279 279 279 280 280 279 279 279 280 279 279 279 279 279 279 279 279 279 278 278 278 278 278 278 278 278 277 277 278 277
282 281 281 281 281 281 280 280 279 279 278 279 279 279 279 279 279 279 279 279 279 279 279 279 279 278 278 278 278 278 277 277 277 278 277 277 277 277 277 277 277 277
281 280 280 280 280 279 279 279 279 278 278 278 279 278 278 279 278 278 278 278 278 278 278 278 278 278 278 278 277 277 277 277 276 277 277 277 277 277 277 277 277 277
280 280 279 279 279 278 278 278 278 278 278 278 278 278 278 278 278 278 278 277 277 277 277 277 277 277 277 277 277 276 276 276 276 277 276 276 277 277 276 277 277 277
280 279 279 278 278 278 278 277 277 277 277 277 278 278 277 278 277 277 277 277 276 276 276 276 276 276 276 276 276 275 275 275 275 276 275 275 276 276 276 276 276 276
279 278 278 278 277 277 277 277 277 277 277 276 277 277 277 277 276 276 276 275 275 275 275 275 275 275 275 275 274 274 274 274 274 274 274 274 274 275 275 275 275 274
278 277 277 277 276 276 276 276 276 276 276 277 276 276 276 276 275 275 275 274 274 274 274 274 273 273 274 274 273 273 273 273 273 273 273 273 273 273 274 275 274 273
277 277 276 276 275 275 275 275 276 276 276 275 275 275 275 275 274 274 274 273 273 273 273 273 273 273 273 273 272 272 272 272 272 272 272 272 272 272 275 274 273 272
276 275 275 275 274 275 275 275 275 275 275 274 274 274 275 274 273 273 273 272 272 272 272 272 272 272 272 272 271 271 271 271 272 271 271 271 271 274 273 273 272 272
275 274 274 274 274 274 274 274 274 274 274 274 274 274 273 273 273 272 272 271 271 271 271 271 271 271 271 272 271 271 271 271 271 271 271 271 271 272 271 271 271 271
274 274 273 273 273 274 273 273 273 274 274 273 273 272 272 272 272 272 271 271 270 270 270 270 271 271 271 271 271 271 271 271 271 271 271 272 271 271 271 270 270 271
273 273 273 273 273 273 273 273 273 273 273 272 272 271 271 271 270 270 270 270 270 270 270 270 271 271 271 271 271 271 271 271 271 271 272 271 270 270 270 270 270 271
273 273 273 273 273 273 273 273 272 272 271 271 271 270 269 269 269 269 269 270 270 270 270 270 270 271 271 271 271 271 271 271 270 271 270 270 270 270 270 271 271 271
273 273 273 272 272 272 272 271 271 271 270 270 269 269 268 268 268 268 269 269 269 270 270 271 271 271 271 271 271 270 270 271 270 270 270 271 271 271 272 271 271 271
273 272 272 272 271 271 270 270 270 269 269 268 268 268 268 268 268 268 268 269 269 270 270 270 270 270 270 270 270 270 271 271 271 271 271 271 271 271 272 272 273 273
272 271 271 271 270 270 269 269 268 268 267 267 267 267 267 268 267 268 268 269 269 270 270 269 269 270 270 272 273 272 272 272 272 271 271 271 271 271 272 273 273 274
271 270 270 269 269 268 268 267 266 266 266 266 266 266 266 267 267 268 268 269 269 269 268 269 269 269 271 274 275 276 273 272 272 272 273 273 273 273 273 274 274 275
270 269 268 268 267 266 266 265 265 264 264 265 265 265 266 267 267 268 268 268 268 268 268 268 268 270 273 274 275 275 276 273 273 273 273 274 274 274 274 274 274 275
269 268 267 266 266 265 264 264 263 263 263 263 264 265 266 266 267 267 267 267 267 267 267 268 268 270 272 274 275 276 276 276 274 274 273 273 274 274 274 273 274 274
267 266 265 265 264 263 263 263 263 263 263 264 264 265 265 265 266 266 266 266 266 266 266 267 267 269 272 274 275 276 277 277 274 274 273 273 273 273 273 273 273 273
266 265 264 264 263 263 262 262 262 263 263 264 264 265 265 264 265 265 265 265 265 265 265 266 267 271 273 274 275 276 277 277 274 273 273 273 273 273 273 273 273 273
264 264 263 263 263 262 262 262 262 262 262 263 264 264 265 265 265 265 264 264 265 265 265 265 267 271 273 274 275 276 277 274 273 273 272 272 272 273 273 273 274 273
264 263 262 261 262 261 261 261 262 262 263 264 263 263 264 263 263 264 264 264 264 264 264 265 266 269 273 274 275 276 275 273 273 272 272 272 272 273 273 273 274 274
263 262 261 261 261 261 261 261 262 262 263 263 262 262 262 263 263 263 264 264 264 264 265 265 266 270 273 274 275 276 275 272 272 272 271 272 272 273 273 274 274 276
262 261 261 261 260 261 261 260 261 261 262 262 262 262 262 263 263 263 263 264 264 265 267 267 267 269 272 274 275 276 274 272 272 272 271 271 272 272 273 273 273 275
261 260 260 259 260 260 260 260 261 261 262 261 261 262 262 263 263 263 262 263 265 266 267 267 268 269 270 274 275 275 276 273 273 271 271 271 272 272 272 272 273 273
Wind_Speed
8 7 7 6 6 5 5 5 5 6 6 6 6 6 7 7 7 7 7 6 7 8 8 9 10 10 10 10 11 11 12 13 13 12 14 14 14 16 16 17 18 16
9 7 6 5 5 5 5 5 6 6 7 7 7 6 7 7 8 7 7 7 7 8 9 10 10 11 11 11 11 12 12 12 14 11 13 16 15 16 18 19 19 17
8 8 7 7 6 6 6 5 6 7 7 7 7 7 7 6 7 7 6 6 7 8 9 10 11 11 12 12 12 12 12 14 14 13 14 15 15 15 16 16 16 18
9 8 7 7 6 6 5 6 6 6 7 7 7 6 6 6 6 6 6 7 7 9 9 10 11 11 11 12 12 12 13 14 14 14 14 14 14 14 15 15 17 18
8 7 6 6 5 5 5 6 7 7 7 7 7 7 7 6 6 6 6 6 7 9 9 10 10 11 11 11 12 12 13 13 13 13 13 14 13 13 15 16 18 19
7 6 6 6 6 6 6 7 6 6 7 7 7 6 7 6 5 5 6 7 8 8 10 10 11 11 11 12 12 12 12 12 12 13 15 15 15 14 13 16 18 19
7 7 7 6 6 6 7 6 6 6 6 6 6 7 6 6 5 6 7 7 8 9 10 10 11 11 10 11 12 13 12 14 15 14 16 15 14 16 16 17 19 19
7 6 6 6 6 6 6 6 5 5 5 5 7 6 5 5 6 6 6 8 9 10 10 11 11 12 11 11 12 13 14 11 12 14 15 15 15 17 19 16 17 19
7 6 6 6 6 6 6 5 5 5 5 5 6 5 4 5 6 7 8 9 10 10 10 11 11 11 11 11 12 13 14 14 13 14 15 16 18 20 19 18 18 18
7 6 6 6 6 5 5 5 5 5 4 5 5 4 5 5 6 8 8 9 10 11 11 11 11 11 12 12 13 13 14 15 14 15 15 16 18 19 18 17 18 19
8 7 7 6 6 5 5 5 5 4 4 5 4 5 5 6 7 7 8 9 9 10 11 12 12 12 12 13 12 13 14 15 15 15 17 19 19 18 18 18 18 19
8 7 7 6 6 5 5 5 4 4 4 4 4 5 6 6 7 7 7 9 10 11 12 12 12 12 13 13 13 14 14 15 15 16 18 18 19 18 17 17 19 19
8 7 6 6 5 5 3 3 3 4 5 4 4 5 6 7 8 9 8 9 11 11 12 12 13 12 12 13 14 14 15 15 16 18 19 17 18 20 20 19 20 21
7 7 6 5 4 4 4 3 3 4 4 4 4 5 6 7 8 9 9 9 10 11 11 11 12 12 13 13 13 13 14 17 18 18 18 19 19 19 19 20 20 22
7 6 5 5 4 4 4 4 4 4 4 4 4 5 6 7 8 9 10 11 11 11 12 11 11 11 10 10 12 16 16 18 19 19 20 20 21 19 21 20 21 20
7 6 5 5 4 4 4 4 4 4 4 4 5 6 7 7 9 9 10 10 11 11 11 10 10 9 12 19 21 18 19 18 18 19 20 19 19 21 19 21 19 22
6 6 5 5 4 4 4 4 5 4 3 4 5 6 7 8 8 9 9 9 10 11 11 10 10 10 19 22 25 27 21 19 20 19 18 19 19 18 20 18 21 19
6 6 5 5 4 4 5 5 4 4 3 4 5 6 7 7 9 9 9 9 9 10 11 11 12 16 22 24 26 27 25 20 18 17 18 17 18 18 18 18 19 18
6 6 5 5 4 4 4 4 4 3 3 5 6 6 6 8 8 9 9 9 9 10 11 12 13 18 23 26 27 28 28 25 17 19 18 20 18 20 21 21 19 19
7 6 5 5 4 4 5 5 3 3 4 5 5 6 6 7 8 9 9 9 9 11 12 12 14 18 25 27 27 29 29 25 19 19 19 19 20 20 20 21 21 20
7 6 6 5 5 5 5 4 2 3 4 5 4 5 6 6 7 8 8 8 10 11 11 13 12 22 26 28 27 28 29 27 18 18 18 19 20 21 21 21 21 20
7 7 6 6 6 6 5 2 2 4 4 4 5 5 5 6 6 7 8 10 10 11 12 14 14 23 25 26 27 27 30 20 17 18 18 18 20 21 22 21 20 20
7 7 6 6 6 5 4 2 2 4 4 3 4 5 5 6 6 7 7 9 11 11 12 13 14 19 23 25 26 28 24 16 17 15 17 20 19 21 22 22 21 21
7 7 7 7 6 5 3 2 3 3 4 3 4 5 5 6 6 7 8 9 11 12 12 14 15 18 23 24 26 27 25 18 16 16 18 16 17 19 18 20 22 30
7 7 7 6 6 4 3 2 4 4 3 3 4 4 5 5 5 7 9 10 11 12 17 17 15 16 22 23 26 27 23 18 18 17 15 16 18 19 20 19 20 21
6 7 6 6 5 4 3 3 3 3 3 3 4 4 4 4 5 7 10 11 11 12 12 13 14 15 17 25 26 27 27 20 15 15 18 21 19 19 20 20 20 19
Wind_Direction
196 201 206 210 217 221 224 228 235 243 250 254 256 264 268 273 276 273 276 280 282 287 289 286 284 282 279 275 273 274 271 269 267 263 262 260 258 259 258 257 257 256
195 199 205 211 217 216 224 227 237 245 252 254 257 262 265 266 267 269 277 282 286 282 285 282 280 277 276 274 274 273 271 267 266 262 262 261 260 261 260 259 259 257
191 196 203 209 215 220 224 233 239 244 247 253 260 259 260 262 265 268 278 283 287 284 281 277 274 274 272 273 274 273 270 269 267 267 266 264 263 262 263 264 263 262
190 195 201 209 219 226 229 233 236 239 244 250 250 256 261 261 262 276 284 285 281 280 278 274 272 274 276 276 275 272 269 269 269 270 269 267 264 264 265 268 267 266
183 190 198 207 217 223 230 237 240 243 248 255 262 259 259 263 272 284 286 285 283 282 281 278 278 279 280 278 275 273 271 271 270 269 269 270 269 267 272 273 271 270
178 187 195 206 214 218 229 235 241 246 253 258 260 267 265 270 276 288 290 286 283 285 285 285 283 282 278 277 275 271 272 271 271 271 272 271 272 268 271 271 272 267
179 183 196 204 213 222 232 240 244 248 253 259 272 266 273 284 288 295 292 285 285 283 281 283 283 280 277 274 272 272 270 271 275 274 273 272 272 274 273 274 272 267
180 185 193 205 212 219 232 235 243 247 251 263 265 269 281 294 293 295 289 287 286 284 281 281 279 277 277 275 275 275 274 274 275 277 276 274 274 276 281 276 274 269
176 186 192 203 214 224 226 233 242 250 252 263 270 280 292 292 291 292 290 286 285 285 282 281 278 280 279 276 274 274 276 277 278 280 278 275 277 281 281 279 272 270
180 185 194 204 213 219 222 232 244 254 263 266 277 288 292 293 291 287 289 287 286 285 281 283 282 282 284 280 278 279 280 281 280 278 275 275 279 283 281 276 274 272
182 185 193 201 209 217 225 238 247 257 264 271 279 287 289 293 290 288 287 288 285 285 285 283 284 284 284 284 282 282 280 282 280 280 280 281 281 282 275 273 272 270
181 186 192 198 206 217 227 237 249 261 270 276 280 284 293 288 288 289 286 285 285 284 285 286 286 284 286 286 287 286 285 283 282 282 286 283 277 273 271 272 270 269
179 184 188 193 201 214 221 238 251 263 269 274 284 288 289 287 287 286 285 285 285 284 282 286 286 286 287 289 291 291 289 286 287 290 287 281 279 274 270 265 269 265
178 182 185 190 197 206 221 235 251 254 263 273 275 281 281 282 285 286 286 282 283 283 284 285 287 288 288 288 291 293 294 294 291 287 284 283 281 279 275 271 266 264
172 173 174 184 195 205 222 233 243 254 258 267 274 277 278 279 281 282 283 281 280 282 286 287 287 286 288 289 294 296 295 292 291 287 286 287 284 278 276 268 273 266
169 166 175 182 190 208 216 230 239 246 254 265 272 274 278 282 281 279 279 282 285 287 289 289 286 282 281 286 293 295 297 297 294 291 287 278 277 273 270 269 262 271
165 170 177 184 195 203 215 230 241 244 261 273 275 277 277 280 278 280 281 284 288 290 292 289 287 284 287 292 296 299 299 297 295 291 284 285 278 278 278 277 271 271
166 167 175 189 191 208 221 230 241 249 262 271 276 276 276 277 279 281 286 290 292 293 291 291 290 288 292 298 300 300 300 299 295 292 293 287 289 283 285 282 284 281
165 168 179 187 197 208 227 230 234 248 263 267 267 272 279 277 279 287 287 291 291 293 294 294 292 292 297 301 303 303 303 303 297 296 293 295 291 292 289 288 286 284
167 166 181 186 191 211 224 228 228 250 262 266 270 273 272 276 279 282 287 293 297 297 296 296 295 294 299 303 304 305 306 305 302 299 297 294 294 292 291 288 286 285
166 171 179 184 197 209 218 220 223 256 259 262 267 266 271 276 281 287 291 295 296 298 297 298 293 298 302 303 305 306 307 309 304 300 298 296 295 292 289 287 285 282
167 172 176 186 199 207 208 206 219 244 252 263 268 274 274 277 281 285 291 297 297 299 297 293 294 299 302 304 307 309 310 309 304 300 298 294 295 294 290 287 285 282
167 169 177 189 199 202 191 182 226 246 253 253 268 275 279 282 285 288 289 294 297 288 290 289 289 296 302 305 307 311 312 308 305 300 299 296 290 293 293 289 286 282
167 171 179 190 193 192 164 179 235 252 241 251 264 279 284 285 292 293 292 293 288 285 282 287 292 299 305 307 310 311 314 312 306 304 296 288 289 289 291 290 287 286
167 174 183 187 187 173 156 201 236 236 245 258 259 271 275 282 294 298 300 296 281 276 285 294 294 299 305 308 311 313 315 311 310 304 293 294 298 298 296 292 291 289
168 177 185 188 178 153 164 213 237 239 243 265 278 268 279 293 299 296 294 292 291 292 294 294 298 300 305 311 315 317 318 316 310 308 305 305 305 302 302 299 295 293